Time,TemperatureF,DewpointF,PressureIn,WindDirection,WindDirectionDegrees,WindSpeedMPH,WindSpeedGustMPH,Humidity,HourlyPrecipIn,Conditions,Clouds,dailyrainin,SolarRadiationWatts/m^2,SoftwareType,DateUTC
2013-02-12 00:01:00,53.0,53.0,-100.00,NNE,16,0.0,0.0,100,0.02,,,2.77,0.000000,,2013-02-12 06:01:00,
2013-02-12 00:32:00,52.0,52.0,-100.00,NNE,14,0.0,0.0,100,0.23,,,2.99,0.000000,,2013-02-12 06:32:00,
2013-02-12 00:42:00,52.0,52.0,-100.00,NNE,14,0.0,0.0,100,0.23,,,2.99,0.000000,,2013-02-12 06:42:00,
2013-02-12 00:52:00,52.0,52.0,-100.00,NNE,14,0.0,0.0,100,0.23,,,2.99,0.000000,,2013-02-12 06:52:00,
2013-02-12 01:01:00,52.0,52.0,-100.00,NNE,14,0.0,0.0,100,0.23,,,2.99,0.000000,,2013-02-12 07:01:00,
2013-02-12 01:32:00,52.0,52.0,-100.00,NE,54,0.0,0.0,100,0.07,,,2.64,0.000000,,2013-02-12 07:32:00,
2013-02-12 01:42:00,52.0,52.0,-100.00,NE,54,0.0,0.0,100,0.07,,,2.64,0.000000,,2013-02-12 07:42:00,
2013-02-12 01:52:00,52.0,52.0,-100.00,NE,54,0.0,0.0,100,0.07,,,2.64,0.000000,,2013-02-12 07:52:00,
2013-02-12 02:01:00,52.0,52.0,-100.00,NE,54,0.0,0.0,100,0.07,,,2.64,0.000000,,2013-02-12 08:01:00,
2013-02-12 02:32:00,52.0,52.0,-100.00,NE,38,0.0,0.0,100,0.01,,,2.65,0.000000,,2013-02-12 08:32:00,
2013-02-12 02:42:00,52.0,52.0,-100.00,NE,38,0.0,0.0,100,0.01,,,2.65,0.000000,,2013-02-12 08:42:00,
2013-02-12 02:52:00,52.0,52.0,-100.00,NE,38,0.0,0.0,100,0.01,,,2.65,0.000000,,2013-02-12 08:52:00,
2013-02-12 03:01:00,52.0,52.0,-100.00,NE,38,0.0,0.0,100,0.01,,,2.65,0.000000,,2013-02-12 09:01:00,
2013-02-12 03:32:00,53.0,53.0,-100.00,ENE,57,0.0,0.0,100,0.00,,,2.64,0.000000,,2013-02-12 09:32:00,
2013-02-12 03:42:00,53.0,53.0,-100.00,ENE,57,0.0,0.0,100,0.00,,,2.64,0.000000,,2013-02-12 09:42:00,
2013-02-12 03:52:00,53.0,53.0,-100.00,ENE,57,0.0,0.0,100,0.00,,,2.64,0.000000,,2013-02-12 09:52:00,
2013-02-12 04:01:00,53.0,53.0,-100.00,ENE,57,0.0,0.0,100,0.00,,,2.64,0.000000,,2013-02-12 10:01:00,
2013-02-12 04:32:00,53.0,53.0,-100.00,NE,47,0.0,0.0,100,0.00,,,2.39,0.000000,,2013-02-12 10:32:00,
2013-02-12 04:43:00,53.0,53.0,-100.00,NE,47,0.0,0.0,100,0.00,,,2.39,0.000000,,2013-02-12 10:43:00,
2013-02-12 04:52:00,53.0,53.0,-100.00,NE,47,0.0,0.0,100,0.00,,,2.39,0.000000,,2013-02-12 10:52:00,
2013-02-12 05:01:00,53.0,53.0,-100.00,NE,47,0.0,0.0,100,0.00,,,2.39,0.000000,,2013-02-12 11:01:00,
2013-02-12 05:32:00,53.0,53.0,-100.00,ENE,66,0.0,0.0,100,0.09,,,2.29,0.000000,,2013-02-12 11:32:00,
2013-02-12 05:42:00,53.0,53.0,-100.00,ENE,66,0.0,0.0,100,0.09,,,2.29,0.000000,,2013-02-12 11:42:00,
2013-02-12 05:52:00,53.0,53.0,-100.00,ENE,66,0.0,0.0,100,0.09,,,2.29,0.000000,,2013-02-12 11:52:00,
2013-02-12 06:01:00,53.0,53.0,-100.00,ENE,66,0.0,0.0,100,0.09,,,2.29,0.000000,,2013-02-12 12:01:00,
2013-02-12 06:32:00,53.0,53.0,-100.00,East,92,0.0,0.0,100,0.36,,,2.51,0.000000,,2013-02-12 12:32:00,
2013-02-12 06:42:00,53.0,53.0,-100.00,East,92,0.0,0.0,100,0.36,,,2.51,0.000000,,2013-02-12 12:42:00,
2013-02-12 06:53:00,53.0,53.0,-100.00,East,92,0.0,0.0,100,0.36,,,2.51,0.000000,,2013-02-12 12:53:00,
2013-02-12 07:01:00,53.0,53.0,-100.00,East,92,0.0,0.0,100,0.36,,,2.51,0.000000,,2013-02-12 13:01:00,
2013-02-12 07:32:00,53.0,53.0,-100.00,East,87,0.0,0.0,100,0.02,,,-99.99,1.000000,,2013-02-12 13:32:00,
2013-02-12 07:42:00,53.0,53.0,-100.00,East,87,0.0,0.0,100,0.02,,,-99.99,1.000000,,2013-02-12 13:42:00,
2013-02-12 07:52:00,53.0,53.0,-100.00,East,87,0.0,0.0,100,0.02,,,-99.99,1.000000,,2013-02-12 13:52:00,
2013-02-12 08:01:00,53.0,53.0,-100.00,East,87,0.0,0.0,100,0.02,,,-99.99,1.000000,,2013-02-12 14:01:00,
2013-02-12 08:32:00,54.0,54.0,-100.00,East,98,0.0,0.0,100,0.00,,,2.20,15.000000,,2013-02-12 14:32:00,
2013-02-12 08:42:00,54.0,54.0,-100.00,East,98,0.0,0.0,100,0.00,,,2.20,15.000000,,2013-02-12 14:42:00,
2013-02-12 08:52:00,54.0,54.0,-100.00,East,98,0.0,0.0,100,0.00,,,2.20,15.000000,,2013-02-12 14:52:00,
2013-02-12 09:02:00,54.0,54.0,-100.00,East,98,0.0,0.0,100,0.00,,,2.20,15.000000,,2013-02-12 15:02:00,
2013-02-12 09:32:00,54.0,54.0,-100.00,East,95,0.0,0.0,100,0.00,,,2.16,24.000000,,2013-02-12 15:32:00,
2013-02-12 09:42:00,54.0,54.0,-100.00,East,95,0.0,0.0,100,0.00,,,2.16,24.000000,,2013-02-12 15:42:00,
2013-02-12 09:52:00,54.0,54.0,-100.00,East,95,0.0,0.0,100,0.00,,,2.16,24.000000,,2013-02-12 15:52:00,
2013-02-12 10:01:00,54.0,54.0,-100.00,East,95,0.0,0.0,100,0.00,,,2.16,24.000000,,2013-02-12 16:01:00,
2013-02-12 10:32:00,54.0,54.0,-100.00,ENE,77,0.0,0.0,100,0.00,,,2.05,48.000000,,2013-02-12 16:32:00,
2013-02-12 10:42:00,54.0,54.0,-100.00,ENE,77,0.0,0.0,100,0.00,,,2.05,48.000000,,2013-02-12 16:42:00,
2013-02-12 10:52:00,54.0,54.0,-100.00,ENE,77,0.0,0.0,100,0.00,,,2.05,48.000000,,2013-02-12 16:52:00,
2013-02-12 11:01:00,54.0,54.0,-100.00,ENE,77,0.0,0.0,100,0.00,,,2.05,48.000000,,2013-02-12 17:01:00,
2013-02-12 11:32:00,54.0,54.0,-100.00,East,99,0.0,0.0,100,0.00,,,1.79,82.000000,,2013-02-12 17:32:00,
2013-02-12 11:42:00,54.0,54.0,-100.00,East,99,0.0,0.0,100,0.00,,,1.79,82.000000,,2013-02-12 17:42:00,
2013-02-12 11:52:00,54.0,54.0,-100.00,East,99,0.0,0.0,100,0.00,,,1.79,82.000000,,2013-02-12 17:52:00,
2013-02-12 12:01:00,54.0,54.0,-100.00,East,99,0.0,0.0,100,0.00,,,1.79,82.000000,,2013-02-12 18:01:00,
2013-02-12 13:32:00,56.0,56.0,-100.00,ESE,117,0.0,0.0,100,-99.99,,,-99.99,94.000000,,2013-02-12 19:32:00,
2013-02-12 13:42:00,56.0,56.0,-100.00,ESE,117,0.0,0.0,100,-99.99,,,-99.99,94.000000,,2013-02-12 19:42:00,
2013-02-12 13:52:00,56.0,56.0,-100.00,ESE,117,0.0,0.0,100,-99.99,,,-99.99,94.000000,,2013-02-12 19:52:00,
2013-02-12 14:01:00,56.0,56.0,-100.00,ESE,117,0.0,0.0,100,-99.99,,,-99.99,94.000000,,2013-02-12 20:01:00,
2013-02-12 15:32:00,57.0,57.0,-100.00,NE,44,0.0,0.0,100,-99.99,,,1.34,43.000000,,2013-02-12 21:32:00,
2013-02-12 15:42:00,57.0,57.0,-100.00,NE,44,0.0,0.0,100,-99.99,,,1.34,43.000000,,2013-02-12 21:42:00,
2013-02-12 15:52:00,57.0,57.0,-100.00,NE,44,0.0,0.0,100,-99.99,,,1.34,43.000000,,2013-02-12 21:52:00,
2013-02-12 16:01:00,57.0,57.0,-100.00,NE,44,0.0,0.0,100,-99.99,,,1.34,43.000000,,2013-02-12 22:01:00,
2013-02-12 16:32:00,57.0,57.0,-100.00,NE,56,0.0,0.0,100,0.00,,,1.28,45.000000,,2013-02-12 22:32:00,
2013-02-12 16:42:00,57.0,57.0,-100.00,NE,56,0.0,0.0,100,0.00,,,1.28,45.000000,,2013-02-12 22:42:00,
2013-02-12 16:52:00,57.0,57.0,-100.00,NE,56,0.0,0.0,100,0.00,,,1.28,45.000000,,2013-02-12 22:52:00,
2013-02-12 17:01:00,57.0,57.0,-100.00,NE,56,0.0,0.0,100,0.00,,,1.28,45.000000,,2013-02-12 23:01:00,
2013-02-12 17:32:00,57.0,57.0,-100.00,ESE,108,0.0,0.0,100,0.00,,,1.22,22.000000,,2013-02-12 23:32:00,
2013-02-12 17:42:00,57.0,57.0,-100.00,ESE,108,0.0,0.0,100,0.00,,,1.22,22.000000,,2013-02-12 23:42:00,
2013-02-12 17:52:00,57.0,57.0,-100.00,ESE,108,0.0,0.0,100,0.00,,,1.22,22.000000,,2013-02-12 23:52:00,
2013-02-12 18:02:00,57.0,57.0,-100.00,ESE,108,0.0,0.0,100,0.00,,,1.22,22.000000,,2013-02-13 00:02:00,
2013-02-12 18:32:00,57.0,57.0,-100.00,ESE,110,0.0,0.0,100,0.00,,,1.08,5.000000,,2013-02-13 00:32:00,
2013-02-12 18:42:00,57.0,57.0,-100.00,ESE,110,0.0,0.0,100,0.00,,,1.08,5.000000,,2013-02-13 00:42:00,
2013-02-12 18:52:00,57.0,57.0,-100.00,ESE,110,0.0,0.0,100,0.00,,,1.08,5.000000,,2013-02-13 00:52:00,
2013-02-12 19:01:00,57.0,57.0,-100.00,ESE,110,0.0,0.0,100,0.00,,,1.08,5.000000,,2013-02-13 01:01:00,
2013-02-12 20:42:00,58.0,58.0,-100.00,ENE,59,0.0,0.0,100,-99.99,,,0.99,0.000000,,2013-02-13 02:42:00,
2013-02-12 20:52:00,58.0,58.0,-100.00,ENE,59,0.0,0.0,100,-99.99,,,0.99,0.000000,,2013-02-13 02:52:00,
2013-02-12 21:01:00,58.0,58.0,-100.00,ENE,59,0.0,0.0,100,-99.99,,,0.99,0.000000,,2013-02-13 03:01:00,
2013-02-12 21:32:00,57.0,57.0,-100.00,West,275,0.0,0.0,100,0.00,,,0.94,0.000000,,2013-02-13 03:32:00,
2013-02-12 21:42:00,57.0,57.0,-100.00,West,275,0.0,0.0,100,0.00,,,0.94,0.000000,,2013-02-13 03:42:00,
2013-02-12 21:52:00,57.0,57.0,-100.00,West,275,0.0,0.0,100,0.00,,,0.94,0.000000,,2013-02-13 03:52:00,
2013-02-12 22:01:00,57.0,57.0,-100.00,West,275,0.0,0.0,100,0.00,,,0.94,0.000000,,2013-02-13 04:01:00,
2013-02-12 22:32:00,57.0,57.0,-100.00,WNW,286,0.0,0.0,100,0.00,,,0.82,0.000000,,2013-02-13 04:32:00,
2013-02-12 22:42:00,57.0,57.0,-100.00,WNW,286,0.0,0.0,100,0.00,,,0.82,0.000000,,2013-02-13 04:42:00,
2013-02-12 22:52:00,57.0,57.0,-100.00,WNW,286,0.0,0.0,100,0.00,,,0.82,0.000000,,2013-02-13 04:52:00,
2013-02-12 23:01:00,57.0,57.0,-100.00,WNW,286,0.0,0.0,100,0.00,,,0.82,0.000000,,2013-02-13 05:01:00,
2013-02-12 23:32:00,55.0,55.0,-100.00,WNW,284,0.0,0.0,100,0.00,,,0.80,0.000000,,2013-02-13 05:32:00,
2013-02-12 23:42:00,55.0,55.0,-100.00,WNW,284,0.0,0.0,100,0.00,,,0.80,0.000000,,2013-02-13 05:42:00,
2013-02-12 23:52:00,55.0,55.0,-100.00,WNW,284,0.0,0.0,100,0.00,,,0.80,0.000000,,2013-02-13 05:52:00,